EW5860 Weather Reports


time (UTC)temp
F
wind
direction
speed
knots
gust
knots
rain 1hr
in
rain 24hr
in
rain mn
in
humidity
%
barometer
mb
20260902004512 71 54 0.0 0.9 0.01 0.52 0.51 95 1013.8
20260902003012 71 239 0.0 3.5 0.27 0.52 0.51 95 1013.7
20260902001511 72 219 0.0 0.0 0.43 0.52 0.51 93 1014.1
20260902000012 72 333 0.0 4.3 0.48 0.51 0.50 91 1014.7
20260901234510 73 280 3.5 12.2 0.48 0.51 0.50 90 1014.6
20260901233013 78 242 7.8 13.9 0.20 0.23 0.22 81 1013.5
20260901231508 81 205 0.0 1.7 0.05 0.08 0.07 91 1012.6
20260901230007 83 216 0.0 0.0 0.00 0.03 0.02 87 1012.6
20260901224506 85 213 0.0 0.9 0.00 0.03 0.02 84 1012.5
20260901223006 87 213 0.0 0.9 0.00 0.03 0.02 80 1012.4
20260901221505 88 233 0.0 2.6 0.00 0.03 0.02 76 1012.6
20260901220002 89 235 0.9 2.6 0.00 0.03 0.02 73 1012.7
20260901214605 89 222 0.9 3.5 0.00 0.03 0.02 71 1012.4
20260901213115 89 266 0.9 3.5 0.00 0.03 0.02 71 1012.8
20260901211558 90 167 0.9 4.3 0.00 0.03 0.02 69 1012.7
20260901210056 89 255 0.9 4.3 0.00 0.03 0.02 71 1012.6
20260901204552 89 227 0.9 6.1 0.00 0.03 0.02 71 1012.8
20260901203051 88 272 1.7 6.1 0.00 0.03 0.02 71 1012.9
20260901201548 88 220 5.2 10.4 0.00 0.03 0.02 70 1013.1
20260901200047 87 207 7.0 12.2 0.00 0.03 0.02 72 1013.0
20260901194544 87 267 2.6 7.0 0.00 0.05 0.02 73 1013.4
20260901193042 87 212 2.6 5.2 0.00 0.05 0.02 76 1013.5
20260901191541 86 226 0.9 3.5 0.00 0.05 0.02 77 1013.6
20260901190037 85 260 0.9 7.0 0.00 0.05 0.02 77 1013.6
20260901184544 86 256 0.0 4.3 0.00 0.05 0.02 76 1013.8
20260901183038 86 193 0.9 4.3 0.00 0.05 0.02 76 1014.0
20260901181536 86 252 0.9 3.5 0.00 0.05 0.02 76 1014.1
20260901180037 86 237 0.0 6.1 0.00 0.05 0.02 75 1014.1
20260901174533 86 210 2.6 6.1 0.00 0.05 0.02 74 1014.0
20260901173031 85 204 2.6 5.2 0.00 0.05 0.02 74 1013.9
20260901171526 85 235 2.6 10.4 0.00 0.05 0.02 77 1014.1
20260901170023 83 264 0.9 3.5 0.00 0.05 0.02 82 1014.4
20260901164520 81 252 0.0 3.5 0.00 0.05 0.02 84 1014.6
20260901163018 81 189 0.0 1.7 0.00 0.05 0.02 85 1014.8
20260901161513 80 161 0.0 0.0 0.00 0.05 0.02 88 1015.0
20260901160014 79 191 0.0 1.7 0.00 0.05 0.02 92 1015.3
20260901154511 78 219 0.0 1.7 0.00 0.05 0.02 91 1015.4
20260901153010 78 238 0.0 0.9 0.00 0.05 0.02 92 1015.5
20260901151510 78 345 0.0 2.6 0.00 0.05 0.02 91 1015.5
20260901150012 79 211 0.0 0.0 0.00 0.05 0.02 89 1015.5
20260901144508 79 211 0.0 0.0 0.00 0.05 0.02 87 1015.2
20260901143007 79 211 0.0 1.7 0.01 0.05 0.02 86 1015.2
20260901141504 78 175 0.0 0.0 0.01 0.05 0.02 90 1015.3
20260901134619 75 220 0.0 1.7 0.01 0.05 0.02 95 1015.4
20260901133059 73 241 0.0 0.0 0.00 0.04 0.01 96 1015.6
20260901131557 73 263 0.0 1.7 0.00 0.04 0.01 96 1015.6
20260901130051 73 256 0.0 0.9 0.00 0.04 0.01 97 1015.7
20260901124555 73 242 0.0 0.9 0.00 0.04 0.01 97 1015.8
20260901123050 73 17 0.0 1.7 0.00 0.04 0.01 98 1015.6
20260901121548 73 236 0.0 2.6 0.00 0.04 0.01 98 1015.5
20260901120044 71 218 0.0 1.7 0.00 0.04 0.01 99 1015.4
20260901114556 70 279 0.0 0.0 0.00 0.04 0.01 98 1015.5
20260901113041 69 279 0.0 0.0 0.00 0.04 0.01 98 1015.8
20260901111541 69 279 0.0 0.0 0.00 0.04 0.01 98 1015.9
20260901110041 68 279 0.0 0.0 0.00 0.04 0.01 98 1015.7
20260901104539 69 279 0.0 0.0 0.00 0.04 0.01 98 1015.8
20260901103038 69 279 0.0 0.0 0.00 0.04 0.01 98 1015.6
20260901101538 68 279 0.0 0.0 0.00 0.04 0.01 98 1015.7
20260901100042 68 279 0.0 0.0 0.00 0.04 0.01 98 1015.8
20260901094536 69 290 0.0 0.0 0.00 0.04 0.01 98 1015.7
20260901093036 69 290 0.0 0.0 0.00 0.04 0.01 98 1015.7
20260901091539 69 290 0.0 0.0 0.00 0.04 0.01 97 1015.8
20260901090033 69 290 0.0 0.0 0.00 0.04 0.01 98 1015.7
20260901084532 69 290 0.0 0.0 0.00 0.04 0.01 97 1015.9
20260901083032 69 290 0.0 0.0 0.00 0.04 0.01 97 1016.1
20260901081537 69 290 0.0 0.0 0.00 0.04 0.01 97 1016.3
20260901080031 69 290 0.0 0.0 0.00 0.04 0.01 97 1016.2
20260901074532 69 290 0.0 0.0 0.00 0.04 0.01 97 1016.0
20260901073030 69 290 0.0 0.0 0.00 0.04 0.01 97 1016.0
20260901071529 69 290 0.0 0.0 0.00 0.04 0.01 97 1016.0
20260901070034 69 290 0.0 0.0 0.00 0.04 0.01 97 1016.0
20260901064530 69 290 0.0 0.9 0.00 0.04 0.01 96 1016.2
20260901063031 70 294 0.0 0.9 0.00 0.04 0.01 96 1016.5
20260901061524 70 315 0.0 0.0 0.00 0.04 0.01 96 1016.4
20260901060022 70 315 0.0 0.0 0.00 0.04 0.01 96 1016.6
20260901054531 71 315 0.0 0.0 0.00 0.04 0.01 96 1016.8
20260901053020 71 238 0.0 1.7 0.00 0.04 0.01 96 1016.8
20260901051519 70 178 0.0 3.5 0.00 0.04 0.01 96 1016.8
20260901050018 70 219 0.0 3.5 0.01 0.04 0.01 97 1016.9
20260901044516 70 228 0.9 6.1 0.01 0.04 0.01 97 1016.9
20260901043014 69 219 0.0 3.5 0.02 0.04 0.01 98 1017.1
20260901041511 69 192 0.0 2.6 0.02 0.04 0.01 97 1017.2
20260901040009 69 215 0.0 0.0 0.01 0.03 0.00 97 1017.4
20260901034518 69 215 0.0 0.0 0.01 0.03 0.03 97 1017.8
20260901033012 68 215 0.0 0.0 0.00 0.02 0.02 97 1017.9
20260901031517 68 215 0.0 0.0 0.00 0.02 0.02 97 1017.7
20260901030007 68 215 0.0 0.0 0.00 0.02 0.02 97 1017.8
20260901024506 68 215 0.0 0.0 0.00 0.02 0.02 97 1017.8
20260901023007 68 215 0.0 0.0 0.00 0.02 0.02 97 1017.8
20260901021505 68 215 0.0 0.0 0.00 0.02 0.02 97 1017.8
20260901020004 67 215 0.0 0.0 0.00 0.02 0.02 97 1017.7
20260901014504 67 215 0.0 0.0 0.00 0.09 0.02 97 1017.7
20260901013009 67 215 0.0 0.0 0.00 0.09 0.02 96 1017.7
20260901011503 68 215 0.0 0.0 0.00 0.09 0.02 96 1017.7
20260901010003 68 215 0.0 0.0 0.00 0.09 0.02 96 1017.7